Overview Statistics Trail Chart Weather Telemetry Raw packets
 

This is the latest recevied weather packets stored in our database for station/object W6JCZ-13. If no packets are shown the sender has not sent any weather packets the latest 10 day(s).

<< 36 37 38 39 40 41 42 >>
Time Temp. Humidity Pressure Rain* Wind** Luminosity Snow
1788078017 15.56° C 73% 1009.8 hPa 0 mm - - -
1788077417 16.11° C 71% 1009.9 hPa 0 mm - - -
1788076817 16.11° C 71% 1009.9 hPa 0 mm - - -
1788076217 16.67° C 71% 1009.8 hPa 0 mm - - -
1788075617 16.67° C 71% 1009.7 hPa 0 mm - - -
1788075017 16.67° C 70% 1009.6 hPa 0 mm - - -
1788074417 16.67° C 71% 1009.5 hPa 0 mm - - -
1788073819 17.22° C 69% 1009.5 hPa 0 mm - - -
1788073217 17.22° C 69% 1009.4 hPa 0 mm - - -
1788072618 17.22° C 68% 1009.3 hPa 0 mm - - -
1788072017 17.78° C 69% 1009.1 hPa 0 mm - - -
1788071418 17.78° C 68% 1009.1 hPa 0 mm - - -
1788070818 17.78° C 67% 1009.2 hPa 0 mm - - -
1788070217 17.78° C 67% 1009.1 hPa 0 mm - - -
1788069618 18.33° C 66% 1009.2 hPa 0 mm - - -
1788069017 18.33° C 65% 1009.3 hPa 0 mm - - -
1788068416 18.89° C 65% 1009.4 hPa 0 mm - - -
1788067817 18.89° C 66% 1009.3 hPa 0 mm - - -
1788067218 18.89° C 65% 1009.3 hPa 0 mm - - -
1788066618 18.89° C 63% 1009.3 hPa 0 mm - - -
1788066017 19.44° C 63% 1009.2 hPa 0 mm - - -
1788065417 20° C 61% 1009.2 hPa 0 mm - - -
1788064817 20.56° C 60% 1009 hPa 0 mm - - -
1788064219 20.56° C 59% 1008.9 hPa 0 mm - - -
1788063617 21.11° C 58% 1008.9 hPa 0 mm - - -

* Rain latest hour (hover to see other rain measurements)
** Current wind speed in m/s (hover to see current wind gust speed)